Terug naar catalogus

STARLINK-32310

ActiefCommunicatieVLEO
NORAD 61662·PAYLOAD·🇺🇸 United States

Gelanceerd Oct 26, 2024 vanaf Cape Canaveral Space Force Station

Loading…

Volgende Passages (komende 24 uur)

TLE

VersSource: CelesTrak SupGP

Epoch: Sep 15, 2026, 03:05 UTC

1 61662C 24193B   26258.12895833  .00006357  00000+0  20437-3 0  2589
2 61662  53.1593 289.6979 0001144  88.5168 146.8866 15.31705422    15

Volg STARLINK-32310 in realtime met AllMySat

Download on the App Store